EW1336 Weather Reports


Display with metric or nautical units.
time (UTC)temp
F
wind
direction
speed
MPH
gust
MPH
rain 1hr
in
rain 24hr
in
rain mn
in
humidity
%
barometer
mb
20260508140050 37 225 0.0 0.0 0.00 0.00 0.00 51 1015.5
20260508134551 37 239 0.0 0.0 0.00 0.00 0.00 50 1015.4
20260508133102 37 236 0.0 0.0 0.00 0.00 0.00 49 1015.4
20260508131545 38 233 0.0 1.0 0.00 0.00 0.00 48 1015.2
20260508130043 37 201 0.0 1.0 0.00 0.00 0.00 46 1015.0
20260508124542 37 198 0.0 1.0 0.00 0.00 0.00 47 1015.1
20260508123041 38 203 0.0 1.0 0.00 0.00 0.00 45 1015.0
20260508121539 38 200 0.0 0.0 0.00 0.00 0.00 45 1014.8
20260508120043 37 200 0.0 1.0 0.00 0.00 0.00 46 1014.8
20260508114537 37 204 0.0 0.0 0.00 0.00 0.00 47 1014.8
20260508113044 36 204 0.0 1.0 0.00 0.00 0.00 51 1014.8
20260508111535 37 183 0.0 1.0 0.00 0.00 0.00 48 1014.8
20260508110034 37 152 0.0 0.0 0.00 0.00 0.00 48 1014.6
20260508104533 36 204 0.0 0.0 0.00 0.00 0.00 51 1014.7
20260508103035 36 239 0.0 0.0 0.00 0.00 0.00 51 1014.7
20260508101537 36 242 0.0 0.0 0.00 0.00 0.00 52 1014.6
20260508100029 36 238 0.0 1.0 0.00 0.00 0.00 53 1014.5
20260508094527 36 263 0.0 1.0 0.00 0.00 0.00 52 1014.5
20260508093027 36 250 0.0 1.0 0.00 0.00 0.00 53 1014.6
20260508091536 36 242 0.0 0.0 0.00 0.00 0.00 54 1014.6
20260508090022 37 212 0.0 1.0 0.00 0.00 0.00 53 1014.5
20260508084520 37 190 0.0 0.0 0.00 0.00 0.00 53 1014.5
20260508083029 38 231 0.0 0.0 0.00 0.00 0.00 54 1014.6
20260508081516 38 204 0.0 0.0 0.00 0.00 0.00 55 1014.8
20260508080014 38 150 0.0 1.0 0.00 0.00 0.00 54 1014.9
20260508074513 38 224 0.0 0.0 0.00 0.00 0.00 55 1014.8
20260508073014 39 226 0.0 0.0 0.00 0.00 0.00 55 1014.9
20260508071509 39 229 0.0 1.0 0.00 0.00 0.00 58 1014.9
20260508070007 39 229 0.0 0.0 0.00 0.00 0.00 59 1014.8
20260508064507 40 225 0.0 0.0 0.00 0.00 0.00 59 1014.8
20260508063003 40 224 0.0 0.0 0.00 0.00 0.00 59 1014.8
20260508061503 41 219 0.0 0.0 0.00 0.00 0.00 60 1014.9
20260508060059 41 215 0.0 0.0 0.00 0.00 0.00 63 1014.8
20260508054600 42 207 0.0 0.0 0.00 0.00 0.00 65 1014.9
20260508053103 43 207 0.0 0.0 0.00 0.00 0.00 66 1014.7
20260508051619 44 204 0.0 0.0 0.00 0.00 0.00 63 1014.6
20260508050058 45 204 0.0 0.0 0.00 0.00 0.00 67 1014.7
20260508044557 46 204 0.0 0.0 0.00 0.00 0.00 68 1014.8
20260508043057 47 204 0.0 0.0 0.00 0.00 0.00 68 1014.8
20260508041556 48 243 0.0 0.0 0.00 0.00 0.00 66 1014.5
20260508040056 49 243 0.0 0.0 0.00 0.00 0.00 67 1014.1
20260508034555 49 248 0.0 0.0 0.00 0.00 0.00 67 1013.7
20260508033056 50 248 0.0 0.0 0.00 0.00 0.00 65 1013.3
20260508031556 51 248 0.0 0.0 0.00 0.00 0.00 62 1013.1
20260508030054 52 248 0.0 0.0 0.00 0.00 0.00 57 1012.9
20260508024552 53 218 0.0 1.0 0.00 0.00 0.00 51 1012.8
20260508023052 54 228 0.0 1.0 0.00 0.00 0.00 45 1012.5
20260508021554 55 229 0.0 1.0 0.00 0.00 0.00 43 1012.5
20260508020103 56 266 0.0 1.0 0.00 0.00 0.00 43 1012.3
20260508014550 57 269 0.0 3.0 0.00 0.00 0.00 41 1012.3
20260508013049 57 267 0.0 3.0 0.00 0.00 0.00 47 1012.1
20260508011551 58 290 0.0 2.0 0.00 0.00 0.00 44 1012.0
20260508010059 59 271 0.0 3.0 0.00 0.00 0.00 45 1012.0
20260508004548 59 281 0.0 3.0 0.00 0.00 0.00 45 1012.0
20260508003047 60 266 0.0 5.0 0.00 0.00 0.00 43 1012.0
20260508001546 61 260 0.0 4.0 0.00 0.00 0.00 39 1011.8
20260508000047 63 206 0.0 4.0 0.00 0.00 0.00 37 1011.8
20260507234543 63 283 0.0 6.0 0.00 0.00 0.00 37 1011.8
20260507233043 64 167 0.0 5.0 0.00 0.00 0.00 37 1011.7
20260507231541 64 291 0.0 3.0 0.00 0.00 0.00 36 1011.9
20260507230054 65 285 0.0 5.0 0.00 0.00 0.00 35 1012.1
20260507224537 65 246 0.0 5.0 0.00 0.00 0.00 36 1012.1
20260507223106 65 208 0.0 4.0 0.00 0.00 0.00 34 1012.3
20260507221532 65 224 0.0 4.0 0.00 0.00 0.00 34 1012.4
20260507220032 65 277 0.0 5.0 0.00 0.00 0.00 36 1012.7
20260507214527 64 263 0.0 5.0 0.00 0.00 0.00 38 1012.9
20260507213026 64 232 1.0 5.0 0.00 0.00 0.00 38 1013.0
20260507211524 64 236 1.0 5.0 0.00 0.00 0.00 37 1013.2
20260507210024 64 277 0.0 5.0 0.00 0.00 0.00 38 1013.3
20260507204519 63 279 2.0 7.0 0.00 0.00 0.00 38 1013.4
20260507203030 64 276 0.0 4.0 0.00 0.00 0.00 42 1013.5
20260507201514 63 190 0.0 4.0 0.00 0.00 0.00 42 1013.6
20260507200020 63 208 0.0 5.0 0.00 0.00 0.00 42 1013.7
20260507194509 61 197 0.0 6.0 0.00 0.00 0.00 42 1013.8
20260507193027 61 239 1.0 5.0 0.00 0.00 0.00 40 1014.0
20260507191505 61 298 0.0 2.0 0.00 0.00 0.00 44 1014.0
20260507190004 60 263 0.0 4.0 0.00 0.00 0.00 46 1014.2
20260507184501 60 266 0.0 3.0 0.00 0.00 0.00 46 1014.3
20260507183059 59 167 0.0 2.0 0.00 0.00 0.00 49 1014.3
20260507181604 58 264 0.0 1.0 0.00 0.00 0.00 52 1014.4
20260507180056 58 265 0.0 3.0 0.00 0.00 0.00 53 1014.5
20260507174558 58 269 0.0 2.0 0.00 0.00 0.00 57 1014.5
20260507173054 57 226 0.0 1.0 0.00 0.00 0.00 61 1014.4
20260507171556 55 273 0.0 1.0 0.00 0.00 0.00 68 1014.4
20260507170045 53 295 0.0 1.0 0.00 0.00 0.00 74 1014.5
20260507164537 52 252 0.0 3.0 0.00 0.00 0.00 77 1014.5
20260507163034 52 200 0.0 1.0 0.00 0.00 0.00 80 1014.7
20260507161532 51 233 0.0 0.0 0.00 0.00 0.00 82 1014.8
20260507160027 49 188 0.0 1.0 0.00 0.00 0.00 83 1015.0
20260507154528 48 56 0.0 1.0 0.00 0.00 0.00 84 1015.1
20260507153022 47 51 0.0 0.0 0.00 0.00 0.00 85 1015.1
20260507151516 45 36 0.0 0.0 0.00 0.00 0.00 87 1015.0
20260507150014 44 36 0.0 0.0 0.00 0.00 0.00 88 1015.0
20260507144515 43 36 0.0 0.0 0.00 0.00 0.00 90 1015.1
20260507143011 42 36 0.0 0.0 0.00 0.00 0.00 88 1015.1
20260507141510 42 36 0.0 0.0 0.00 0.00 0.00 87 1015.0